Date String (YYYY-MM-DD hh:mm:ss) UTC,Instrument flags,Ambient pressure (hPa),Sample flow (lpm),Bypass flow (lpm),Sample temperature (°C),Ambient temperature (°C),ASC tube jacket temperature (°C),LED temperature (°C),Box temperature (°C),Sample RH (%),Span deviation,Mass concentration (μg/m³),Mass concentration (μg/m³),Mass concentration (μg/m³)
DateTimeUTC,F1_M11,P_M11,Q1_M11,Q2_M11,T1_M11,T2_M11,T3_M11,T4_M11,T5_M11,U1_M11,ZSPAN_M11,X0_M11,X2_M11,X1_M11
2022-10-10 09:00:00,,0829.4,4.99,0.00,28.5,26.8,00.0,37.3,30.3,11.2,0000.0,0008.40,0004.65,0004.22
2022-10-10 09:01:00,,0829.4,5.01,0.00,28.5,26.8,00.0,37.3,30.3,11.2,0000.0,0008.26,0004.62,0004.21
2022-10-10 09:02:00,,0829.4,5.00,0.00,28.5,26.8,00.0,37.3,30.3,11.1,0000.0,0008.05,0004.56,0004.19
2022-10-10 09:03:00,,0829.3,4.99,0.00,28.5,26.8,00.0,37.3,30.3,11.1,0000.0,0008.18,0004.54,0004.17
2022-10-10 09:04:00,,0829.3,5.01,0.00,28.5,26.8,00.0,37.3,30.3,11.0,0000.0,0008.39,0004.52,0004.16
2022-10-10 09:05:00,,0829.3,5.00,0.00,28.4,26.8,00.0,37.3,30.3,11.0,0000.0,0008.41,0004.49,0004.16
2022-10-10 09:06:00,,0829.2,5.00,0.00,28.4,26.8,00.0,37.3,30.3,11.0,0000.0,0008.10,0004.49,0004.15
2022-10-10 09:07:00,,0829.3,5.01,0.00,28.4,26.8,00.0,37.3,30.2,11.0,0000.0,0007.63,0004.47,0004.13
2022-10-10 09:08:00,,0829.3,4.99,0.00,28.4,26.8,00.0,37.3,30.2,11.0,0000.0,0007.63,0004.47,0004.12
2022-10-10 09:09:00,,0829.3,5.01,0.00,28.4,26.8,00.0,37.3,30.2,11.0,0000.0,0007.64,0004.47,0004.12
2022-10-10 09:10:00,,0829.3,5.01,0.00,28.4,26.8,00.0,37.3,30.2,11.0,0000.0,0007.66,0004.46,0004.11
2022-10-10 09:11:00,,0829.2,4.99,0.00,28.4,26.8,00.0,37.3,30.2,11.0,0000.0,0007.65,0004.44,0004.10
2022-10-10 09:12:00,,0829.2,5.00,0.00,28.4,26.7,00.0,37.3,30.2,11.0,0000.0,0007.60,0004.42,0004.09
2022-10-10 09:13:00,,0829.3,5.01,0.00,28.4,26.8,00.0,37.2,30.2,11.0,0000.0,0007.62,0004.43,0004.08
2022-10-10 09:14:00,,0829.3,5.00,0.00,28.4,26.8,00.0,37.2,30.2,11.0,0000.0,0007.41,0004.43,0004.08
2022-10-10 09:15:00,,0829.2,5.01,0.00,28.4,26.8,00.0,37.2,30.2,11.1,0000.0,0007.67,0004.42,0004.10
2022-10-10 09:16:00,,0829.2,4.99,0.00,28.4,26.7,00.0,37.2,30.2,11.1,0000.0,0007.68,0004.46,0004.10
2022-10-10 09:17:00,,0829.2,5.01,0.00,28.4,26.7,00.0,37.2,30.2,11.1,0000.0,0007.98,0004.46,0004.11
2022-10-10 09:18:00,,0829.2,4.99,0.00,28.4,26.7,00.0,37.2,30.2,11.1,0000.0,0008.11,0004.46,0004.12
2022-10-10 09:19:00,,0829.2,5.01,0.00,28.4,26.7,00.0,37.2,30.1,11.1,0000.0,0008.21,0004.48,0004.14
2022-10-10 09:20:00,,0829.3,4.99,0.00,28.4,26.7,00.0,37.2,30.1,11.1,0000.0,0008.18,0004.47,0004.14
2022-10-10 09:21:00,,0829.3,5.01,0.00,28.4,26.7,00.0,37.2,30.2,11.1,0000.0,0008.12,0004.46,0004.15
2022-10-10 09:22:00,,0829.3,5.01,0.00,28.3,26.7,00.0,37.2,30.1,11.1,0000.0,0008.08,0004.48,0004.18
2022-10-10 09:23:00,,0829.2,4.99,0.00,28.3,26.7,00.0,37.2,30.2,11.3,0000.0,0008.22,0004.55,0004.21
2022-10-10 09:24:00,,0829.2,5.01,0.00,28.3,26.7,00.0,37.2,30.2,11.1,0000.0,0008.27,0004.57,0004.22
2022-10-10 09:25:00,,0829.3,5.00,0.00,28.3,26.7,00.0,37.2,30.1,10.9,0000.0,0008.26,0004.57,0004.23
2022-10-10 09:26:00,,0829.2,4.99,0.00,28.3,26.6,00.0,37.2,30.1,10.9,0000.0,0007.78,0004.59,0004.23
2022-10-10 09:27:00,,0829.2,5.01,0.00,28.3,26.6,00.0,37.2,30.1,11.0,0000.0,0007.70,0004.56,0004.23
2022-10-10 09:28:00,,0829.2,5.00,0.00,28.3,26.6,00.0,37.1,30.1,11.0,0000.0,0007.49,0004.55,0004.22
2022-10-10 09:29:00,,0829.2,5.00,0.00,28.3,26.7,00.0,37.1,30.1,11.0,0000.0,0007.49,0004.59,0004.23
2022-10-10 09:30:00,,0829.2,5.01,0.00,28.3,26.6,00.0,37.1,30.1,11.0,0000.0,0007.35,0004.58,0004.23
2022-10-10 09:31:00,,0829.1,5.00,0.00,28.3,26.6,00.0,37.1,30.1,11.0,0000.0,0007.35,0004.58,0004.24
2022-10-10 09:32:00,,0829.1,4.99,0.00,28.3,26.6,00.0,37.1,30.1,11.0,0000.0,0007.47,0004.62,0004.24
2022-10-10 09:33:00,,0829.0,5.01,0.00,28.3,26.6,00.0,37.1,30.1,10.9,0000.0,0007.48,0004.61,0004.22
2022-10-10 09:34:00,,0829.0,4.99,0.00,28.3,26.6,00.0,37.1,30.0,10.9,0000.0,0007.41,0004.59,0004.22
2022-10-10 09:35:00,,0829.0,5.00,0.00,28.3,26.6,00.0,37.1,30.0,10.8,0000.0,0007.41,0004.59,0004.23
2022-10-10 09:36:00,,0829.1,5.01,0.00,28.3,26.6,00.0,37.1,30.0,10.8,0000.0,0007.43,0004.59,0004.22
2022-10-10 09:37:00,,0829.1,4.99,0.00,28.2,26.5,00.0,37.1,30.0,10.8,0000.0,0007.47,0004.58,0004.20
2022-10-10 09:38:00,,0829.0,5.00,0.00,28.2,26.5,00.0,37.1,30.0,10.7,0000.0,0007.34,0004.57,0004.20
2022-10-10 09:39:00,,0829.0,4.99,0.00,28.2,26.5,00.0,37.1,30.0,10.8,0000.0,0007.00,0004.56,0004.20
2022-10-10 09:40:00,,0829.0,5.01,0.00,28.2,26.5,00.0,37.1,30.0,10.8,0000.0,0006.84,0004.51,0004.18
2022-10-10 09:41:00,,0829.0,4.98,0.00,28.2,26.5,00.0,37.1,30.0,11.0,0000.0,0006.90,0004.51,0004.18
2022-10-10 09:42:00,,0829.0,5.01,0.00,28.2,26.5,00.0,37.0,30.0,11.0,0000.0,0006.98,0004.51,0004.17
2022-10-10 09:43:00,,0829.0,5.00,0.00,28.2,26.5,00.0,37.0,30.0,11.1,0000.0,0006.95,0004.49,0004.16
2022-10-10 09:44:00,,0829.0,4.99,0.00,28.2,26.5,00.0,37.0,30.0,11.1,0000.0,0006.94,0004.49,0004.17
2022-10-10 09:45:00,,0828.9,5.00,0.00,28.2,26.5,00.0,37.0,30.0,11.1,0000.0,0006.84,0004.45,0004.16
2022-10-10 09:46:00,,0829.0,5.00,0.00,28.2,26.5,00.0,37.0,30.0,11.0,0000.0,0007.20,0004.46,0004.15
2022-10-10 09:47:00,,0829.0,5.00,0.00,28.2,26.5,00.0,37.0,30.0,11.0,0000.0,0007.38,0004.45,0004.13
2022-10-10 09:48:00,,0829.0,5.01,0.00,28.2,26.5,00.0,37.0,29.9,11.1,0000.0,0007.49,0004.45,0004.12
2022-10-10 09:49:00,,0829.0,4.99,0.00,28.2,26.5,00.0,37.0,29.9,11.3,0000.0,0007.77,0004.46,0004.10
2022-10-10 09:50:00,,0829.1,5.00,0.00,28.1,26.4,00.0,37.0,29.9,11.5,0000.0,0007.93,0004.49,0004.10
2022-10-10 09:51:00,,0829.1,5.00,0.00,28.1,26.4,00.0,37.0,29.9,11.4,0000.0,0008.03,0004.50,0004.09
2022-10-10 09:52:00,,0829.1,4.99,0.00,28.1,26.5,00.0,37.0,29.9,11.2,0000.0,0008.03,0004.50,0004.08
2022-10-10 09:53:00,,0829.1,5.01,0.00,28.1,26.4,00.0,37.0,29.9,11.3,0000.0,0008.21,0004.55,0004.08
2022-10-10 09:54:00,,0829.0,5.00,0.00,28.1,26.4,00.0,36.9,29.9,11.1,0000.0,0008.84,0004.57,0004.07
2022-10-10 09:55:00,,0829.0,4.99,0.00,28.1,26.4,00.0,36.9,29.9,11.1,0000.0,0009.16,0004.57,0004.06
2022-10-10 09:56:00,,0829.0,5.02,0.00,28.1,26.4,00.0,36.9,29.9,11.0,0000.0,0009.18,0004.61,0004.07
2022-10-10 09:57:00,,0829.0,5.00,0.00,28.1,26.4,00.0,36.9,29.9,11.0,0000.0,0009.07,0004.61,0004.08
2022-10-10 09:58:00,,0828.9,5.00,0.00,28.1,26.5,00.0,36.9,29.9,11.0,0000.0,0008.98,0004.61,0004.09
2022-10-10 09:59:00,,0828.9,5.01,0.00,28.1,26.5,00.0,36.9,29.9,11.0,0000.0,0008.94,0004.60,0004.10
